Regional Weather Roundup
Issued by NWS State College, PA

Home | Current Version | Previous Version | Text Only | Print | Product List | Glossary On
Versions: 1 2 3 4 5 6 7 8 9 10 11 12 13 14 15 16 17 18 19 20 21 22 23 24 25 26 27 28 29 30 31 32 33 34 35 36 37 38 39 40 41 42 43 44 45 46 47 48 49 50
000
ASUS41 KCTP 260203
RWRCTP

REGIONAL WEATHER ROUNDUP
NATIONAL WEATHER SERVICE STATE COLLEGE PA
900 PM EST TUE NOV 25 2014

Note: "fair" indicates few or no clouds below 12,000 feet with no
significant weather and/or obstructions to visibility.

* = STATION THAT DOES NOT REPORT PRECIPITATION /E.G. RAIN...SNOW...ETC/
    THUNDER OR FOG.

PAZ002>004-007>009-013>016-020>023-029>032-260300-
WESTERN PENNSYLVANIA

CITY           SKY/WX    TMP DP  RH WIND       PRES   REMARKS
ERIE           CLOUDY    35  24  64 SW9       30.18R
MEADVILLE      CLOUDY    33  25  72 W7        30.15R
FRANKLIN*      CLOUDY    34  23  64 W9        30.16S
NEW CASTLE       N/A     33  24  70 CALM      30.18S
BEAVER COUNTY  CLEAR     30  25  80 CALM      30.16R
BUTLER*        CLEAR     28  23  80 CALM      30.18R
PITTSBURGH INT PTCLDY    33  25  72 CALM      30.16R
PITTSBURGH     CLEAR     34  23  64 N5        30.15S
INDIANA*       CLEAR     34  27  75 CALM      30.19S
LATROBE        CLEAR     36  27  69 CALM      30.19R
WASHINGTON CO* CLEAR     28  25  86 CALM      30.17R
$$

PAZ004>006-010>012-017>019-024>028-033>037-041-042-045-046-049>053-260300-
CENTRAL PENNSYLVANIA

CITY           SKY/WX    TMP DP  RH WIND       PRES   REMARKS
BRADFORD       CLOUDY    32  22  66 NW12      30.11R
DUBOIS         CLEAR     31  24  75 NW6       30.12S
CLEARFIELD     CLEAR     35  25  66 W7        30.13R
JOHNSTOWN      CLEAR     33  25  72 NW10      30.10R
ALTOONA        PTCLDY    38  28  67 NW10      30.12R
STATE COLLEGE  CLEAR     37  28  70 NW8       30.15R
WILLIAMSPORT   PTCLDY    36  27  69 N3        30.12R
SELINSGROVE    MOCLDY    33  29  85 CALM      30.13R
FT INDIANTOWN  MOCLDY    35  30  80 CALM      30.11F
CAPITAL CITY   PTCLDY    39  31  72 SW3       30.12S
HARRISBURG     MOCLDY    37  30  75 CALM      30.11S
YORK           MOCLDY    32  29  88 W3        30.13R
$$

PAZ038>040-043-044-047-048-054-055-060>062-067>071-260300-
EASTERN PENNSYLVANIA

CITY           SKY/WX    TMP DP  RH WIND       PRES   REMARKS
SCRANTON       PTCLDY    43  27  53 SW6       30.10R
MOUNT POCONO   PTCLDY    39  26  59 NW12      30.06R
ALLENTOWN      PTCLDY    40  27  59 CALM      30.12R
QUAKERTOWN*    PTCLDY    32  30  93 CALM      30.12S
READING        PTCLDY    40  29  64 CALM      30.12R
LANCASTER      PTCLDY    39  29  67 CALM      30.11F
COATESVILLE    PTCLDY    43  30  61 CALM      30.12S
POTTSTOWN      PTCLDY    38  29  70 CALM      30.13S
BLUE BELL      PTCLDY    39  34  81 CALM      30.12R
DOYLESTOWN     PTCLDY    40  31  70 CALM      30.11R
WILLOW GROVE   NOT AVBL
NORTH PHILA    MOCLDY    49  30  48 W3        30.14R
PHILADELPHIA   MOCLDY    49  32  52 SW6       30.14R
$$


USA.gov is the U.S. government's official web portal to all federal, state and local government web resources and services.